| time (UTC) | temp F | wind direction | speed MPH | gust MPH | rain 1hr in | rain 24hr in | rain mn in | humidity % | barometer mb |
| 20260905154620 | 62 | 61 | 0.0 | 13.0 | 0.00 | 0.02 | 0.02 | 73 | 1011.9 |
| 20260905154115 | 62 | 61 | 0.0 | 13.0 | 0.00 | 0.02 | 0.02 | 73 | 1011.9 |
| 20260905152427 | 62 | 44 | 0.0 | 5.0 | 0.00 | 0.02 | 0.02 | 75 | 1011.9 |
| 20260905151922 | 62 | 44 | 0.0 | 5.0 | 0.00 | 0.02 | 0.02 | 75 | 1011.9 |
| 20260905151418 | 62 | 44 | 0.0 | 5.0 | 0.00 | 0.02 | 0.02 | 75 | 1011.9 |
| 20260905145724 | 61 | 78 | 0.0 | 0.0 | 0.00 | 0.02 | 0.02 | 79 | 1011.9 |
| 20260905145219 | 61 | 78 | 0.0 | 0.0 | 0.00 | 0.02 | 0.02 | 79 | 1011.9 |
| 20260905144717 | 61 | 78 | 0.0 | 0.0 | 0.00 | 0.02 | 0.02 | 79 | 1011.9 |
| 20260905143021 | 61 | 341 | 0.0 | 2.0 | 0.00 | 0.02 | 0.02 | 78 | 1012.2 |
| 20260905142519 | 61 | 341 | 0.0 | 2.0 | 0.00 | 0.02 | 0.02 | 78 | 1012.2 |
| 20260905142015 | 61 | 341 | 0.0 | 2.0 | 0.00 | 0.02 | 0.02 | 78 | 1012.2 |
| 20260905140325 | 62 | 91 | 0.0 | 0.0 | 0.00 | 0.02 | 0.02 | 79 | 1010.9 |
| 20260905135824 | 62 | 91 | 0.0 | 0.0 | 0.00 | 0.02 | 0.02 | 79 | 1010.9 |
| 20260905135319 | 62 | 91 | 0.0 | 0.0 | 0.00 | 0.02 | 0.02 | 79 | 1010.9 |
| 20260905133619 | 60 | 49 | 0.0 | 2.0 | 0.00 | 0.02 | 0.02 | 81 | 1011.9 |
| 20260905133118 | 60 | 49 | 0.0 | 2.0 | 0.00 | 0.02 | 0.02 | 81 | 1011.9 |
| 20260905132618 | 60 | 49 | 0.0 | 2.0 | 0.00 | 0.02 | 0.02 | 81 | 1011.9 |
| 20260905130923 | 59 | 62 | 0.0 | 0.0 | 0.00 | 0.02 | 0.02 | 84 | 1011.6 |
| 20260905130418 | 59 | 62 | 0.0 | 0.0 | 0.00 | 0.02 | 0.02 | 84 | 1011.6 |
| 20260905125917 | 59 | 62 | 0.0 | 0.0 | 0.00 | 0.02 | 0.02 | 84 | 1011.6 |
| 20260905124225 | 57 | 322 | 0.0 | 0.0 | 0.00 | 0.02 | 0.02 | 88 | 1011.6 |
| 20260905123720 | 57 | 322 | 0.0 | 0.0 | 0.00 | 0.02 | 0.02 | 88 | 1011.6 |
| 20260905123217 | 57 | 322 | 0.0 | 0.0 | 0.00 | 0.02 | 0.02 | 88 | 1011.6 |
| 20260905121526 | 57 | 86 | 0.0 | 0.0 | 0.00 | 0.02 | 0.02 | 88 | 1011.6 |
| 20260905121021 | 57 | 86 | 0.0 | 0.0 | 0.00 | 0.02 | 0.02 | 88 | 1011.6 |
| 20260905120520 | 57 | 86 | 0.0 | 0.0 | 0.00 | 0.02 | 0.02 | 88 | 1011.6 |
| 20260905114818 | 55 | 344 | 0.0 | 0.0 | 0.00 | 0.02 | 0.02 | 91 | 1011.6 |
| 20260905114316 | 55 | 344 | 0.0 | 0.0 | 0.00 | 0.02 | 0.02 | 91 | 1011.6 |
| 20260905113815 | 55 | 344 | 0.0 | 0.0 | 0.00 | 0.02 | 0.02 | 91 | 1011.6 |
| 20260905112123 | 54 | 267 | 0.0 | 2.0 | 0.00 | 0.02 | 0.02 | 92 | 1011.2 |
| 20260905111617 | 54 | 267 | 0.0 | 2.0 | 0.00 | 0.02 | 0.02 | 92 | 1011.2 |
| 20260905111116 | 54 | 267 | 0.0 | 2.0 | 0.00 | 0.02 | 0.02 | 92 | 1011.2 |
| 20260905105420 | 54 | 23 | 0.0 | 0.0 | 0.00 | 0.02 | 0.02 | 92 | 1010.9 |
| 20260905104919 | 54 | 23 | 0.0 | 0.0 | 0.00 | 0.02 | 0.02 | 92 | 1010.9 |
| 20260905104415 | 54 | 23 | 0.0 | 0.0 | 0.00 | 0.02 | 0.02 | 92 | 1010.9 |
| 20260905102721 | 53 | 154 | 0.0 | 0.0 | 0.00 | 0.02 | 0.02 | 93 | 1010.6 |
| 20260905102218 | 53 | 154 | 0.0 | 0.0 | 0.00 | 0.02 | 0.02 | 93 | 1010.6 |
| 20260905101717 | 53 | 154 | 0.0 | 0.0 | 0.00 | 0.02 | 0.02 | 93 | 1010.6 |
| 20260905100031 | 54 | 179 | 0.0 | 0.0 | 0.00 | 0.02 | 0.02 | 93 | 1010.6 |
| 20260905095525 | 54 | 179 | 0.0 | 0.0 | 0.00 | 0.02 | 0.02 | 93 | 1010.6 |
| 20260905095021 | 54 | 179 | 0.0 | 0.0 | 0.00 | 0.02 | 0.02 | 93 | 1010.6 |
| 20260905093320 | 54 | 2 | 0.0 | 0.0 | 0.00 | 0.02 | 0.02 | 93 | 1009.9 |
| 20260905092816 | 54 | 2 | 0.0 | 0.0 | 0.00 | 0.02 | 0.02 | 93 | 1009.9 |
| 20260905092315 | 54 | 2 | 0.0 | 0.0 | 0.00 | 0.02 | 0.02 | 93 | 1009.9 |
| 20260905090624 | 55 | 178 | 0.0 | 8.0 | 0.00 | 0.02 | 0.02 | 93 | 1009.5 |
| 20260905090119 | 55 | 178 | 0.0 | 8.0 | 0.00 | 0.02 | 0.02 | 93 | 1009.5 |
| 20260905085618 | 55 | 178 | 0.0 | 8.0 | 0.00 | 0.02 | 0.02 | 93 | 1009.5 |
| 20260905083928 | 55 | 256 | 0.0 | 0.0 | 0.00 | 0.02 | 0.02 | 93 | 1009.9 |
| 20260905083424 | 55 | 256 | 0.0 | 0.0 | 0.00 | 0.02 | 0.02 | 93 | 1009.9 |
| 20260905082919 | 55 | 256 | 0.0 | 0.0 | 0.00 | 0.02 | 0.02 | 93 | 1009.9 |
| 20260905081225 | 55 | 356 | 0.0 | 0.0 | 0.00 | 0.02 | 0.02 | 93 | 1009.5 |
| 20260905080724 | 55 | 356 | 0.0 | 0.0 | 0.00 | 0.02 | 0.02 | 93 | 1009.5 |
| 20260905080218 | 55 | 356 | 0.0 | 0.0 | 0.00 | 0.02 | 0.02 | 93 | 1009.5 |
| 20260905074527 | 56 | 342 | 0.0 | 0.0 | 0.00 | 0.02 | 0.02 | 93 | 1009.5 |
| 20260905074023 | 56 | 342 | 0.0 | 0.0 | 0.00 | 0.02 | 0.02 | 93 | 1009.5 |
| 20260905073517 | 56 | 342 | 0.0 | 0.0 | 0.00 | 0.02 | 0.02 | 93 | 1009.5 |
| 20260905071829 | 56 | 192 | 0.0 | 5.0 | 0.00 | 0.02 | 0.02 | 93 | 1009.1 |
| 20260905071325 | 56 | 192 | 0.0 | 5.0 | 0.00 | 0.02 | 0.02 | 93 | 1009.1 |
| 20260905070819 | 56 | 192 | 0.0 | 5.0 | 0.00 | 0.02 | 0.02 | 93 | 1009.1 |
| 20260905065127 | 57 | 126 | 0.0 | 0.0 | 0.00 | 0.02 | 0.02 | 93 | 1008.8 |
| 20260905064623 | 57 | 126 | 0.0 | 0.0 | 0.00 | 0.02 | 0.02 | 93 | 1008.8 |
| 20260905064118 | 57 | 126 | 0.0 | 0.0 | 0.00 | 0.02 | 0.02 | 93 | 1008.8 |
| 20260905062424 | 57 | 28 | 0.0 | 0.0 | 0.00 | 0.02 | 0.02 | 93 | 1008.4 |
| 20260905061919 | 57 | 28 | 0.0 | 0.0 | 0.00 | 0.02 | 0.02 | 93 | 1008.4 |
| 20260905061418 | 57 | 28 | 0.0 | 0.0 | 0.00 | 0.02 | 0.02 | 93 | 1008.4 |
| 20260905055727 | 57 | 140 | 0.0 | 0.0 | 0.00 | 0.02 | 0.02 | 93 | 1008.1 |
| 20260905055223 | 57 | 140 | 0.0 | 0.0 | 0.00 | 0.02 | 0.02 | 93 | 1008.1 |
| 20260905054717 | 57 | 140 | 0.0 | 0.0 | 0.00 | 0.02 | 0.02 | 93 | 1008.1 |
| 20260905053016 | 57 | 341 | 0.0 | 0.0 | 0.00 | 0.01 | 0.01 | 93 | 1008.1 |
| 20260905052516 | 57 | 341 | 0.0 | 0.0 | 0.00 | 0.01 | 0.01 | 93 | 1008.1 |
| 20260905052015 | 57 | 341 | 0.0 | 0.0 | 0.00 | 0.01 | 0.01 | 93 | 1008.1 |
| 20260905051332 | 57 | 318 | 0.0 | 0.0 | 0.00 | 0.01 | 0.01 | 93 | 1008.1 |
| 20260905050829 | 57 | 318 | 0.0 | 0.0 | 0.00 | 0.01 | 0.01 | 93 | 1008.1 |
| 20260905050325 | 58 | 18 | 0.0 | 0.0 | 0.00 | 0.01 | 0.01 | 93 | 1007.7 |
| 20260905045825 | 58 | 18 | 0.0 | 0.0 | 0.00 | 0.01 | 0.01 | 93 | 1007.7 |
| 20260905045320 | 58 | 18 | 0.0 | 0.0 | 0.00 | 0.01 | 0.01 | 93 | 1007.7 |
| 20260905043624 | 58 | 18 | 0.0 | 0.0 | 0.00 | 0.00 | 0.00 | 93 | 1007.7 |
| 20260905043120 | 58 | 18 | 0.0 | 0.0 | 0.00 | 0.00 | 0.00 | 93 | 1007.7 |
| 20260905042618 | 58 | 18 | 0.0 | 0.0 | 0.00 | 0.00 | 0.00 | 93 | 1007.7 |
| 20260905040919 | 58 | 32 | 0.0 | 5.0 | 0.07 | 0.30 | 0.30 | 93 | 1007.7 |
| 20260905040418 | 58 | 32 | 0.0 | 5.0 | 0.07 | 0.30 | 0.30 | 93 | 1007.7 |
| 20260905035917 | 58 | 32 | 0.0 | 5.0 | 0.07 | 0.30 | 0.30 | 93 | 1007.7 |
| 20260905034225 | 59 | 343 | 0.0 | 0.0 | 0.00 | 0.27 | 0.27 | 93 | 1007.4 |
| 20260905033723 | 59 | 343 | 0.0 | 0.0 | 0.00 | 0.27 | 0.27 | 93 | 1007.4 |
| 20260905033219 | 59 | 343 | 0.0 | 0.0 | 0.00 | 0.27 | 0.27 | 93 | 1007.4 |
| 20260905031526 | 59 | 33 | 0.0 | 5.0 | 0.00 | 0.27 | 0.27 | 93 | 1007.1 |
| 20260905031025 | 59 | 33 | 0.0 | 5.0 | 0.00 | 0.27 | 0.27 | 93 | 1007.1 |
| 20260905030520 | 59 | 33 | 0.0 | 5.0 | 0.00 | 0.27 | 0.27 | 93 | 1007.1 |
| 20260905024826 | 59 | 213 | 0.0 | 2.0 | 0.00 | 0.26 | 0.26 | 92 | 1006.7 |
| 20260905024321 | 59 | 213 | 0.0 | 2.0 | 0.00 | 0.26 | 0.26 | 92 | 1006.7 |
| 20260905023816 | 59 | 213 | 0.0 | 2.0 | 0.00 | 0.26 | 0.26 | 92 | 1006.7 |
| 20260905022125 | 59 | 73 | 0.0 | 5.0 | 0.00 | 0.26 | 0.26 | 92 | 1007.1 |
| 20260905021620 | 59 | 73 | 0.0 | 5.0 | 0.00 | 0.26 | 0.26 | 92 | 1007.1 |
| 20260905021115 | 59 | 73 | 0.0 | 5.0 | 0.00 | 0.26 | 0.26 | 92 | 1007.1 |
| 20260905015422 | 60 | 286 | 0.0 | 10.0 | 0.00 | 0.26 | 0.26 | 93 | 1007.1 |
| 20260905014921 | 60 | 286 | 0.0 | 10.0 | 0.00 | 0.26 | 0.26 | 93 | 1007.1 |
| 20260905014417 | 60 | 286 | 0.0 | 10.0 | 0.00 | 0.26 | 0.26 | 93 | 1007.1 |
| 20260905012726 | 60 | 192 | 0.0 | 0.0 | 0.00 | 0.26 | 0.26 | 93 | 1007.1 |
| 20260905012221 | 60 | 192 | 0.0 | 0.0 | 0.00 | 0.26 | 0.26 | 93 | 1007.1 |
| 20260905011718 | 60 | 192 | 0.0 | 0.0 | 0.00 | 0.26 | 0.26 | 93 | 1007.1 |
| 20260905010035 | 60 | 157 | 0.0 | 0.0 | 0.00 | 0.26 | 0.26 | 93 | 1006.7 |
| 20260905005530 | 60 | 157 | 0.0 | 0.0 | 0.00 | 0.26 | 0.26 | 93 | 1006.7 |
| 20260905005020 | 60 | 157 | 0.0 | 0.0 | 0.00 | 0.26 | 0.26 | 93 | 1006.7 |
| 20260905003331 | 60 | 226 | 0.0 | 0.0 | 0.00 | 0.26 | 0.26 | 93 | 1007.1 |
| 20260905002826 | 60 | 226 | 0.0 | 0.0 | 0.00 | 0.26 | 0.26 | 93 | 1007.1 |
| 20260905002320 | 60 | 226 | 0.0 | 0.0 | 0.00 | 0.26 | 0.26 | 93 | 1007.1 |
| 20260905000621 | 61 | 6 | 0.0 | 0.0 | 0.00 | 0.26 | 0.26 | 92 | 1007.1 |
| 20260905000117 | 61 | 6 | 0.0 | 0.0 | 0.00 | 0.26 | 0.26 | 92 | 1007.1 |
| 20260904235616 | 61 | 6 | 0.0 | 0.0 | 0.00 | 0.26 | 0.26 | 92 | 1007.1 |
| 20260904233928 | 61 | 266 | 0.0 | 0.0 | 0.00 | 0.26 | 0.26 | 92 | 1007.1 |
| 20260904233423 | 61 | 266 | 0.0 | 0.0 | 0.00 | 0.26 | 0.26 | 92 | 1007.1 |
| 20260904232919 | 61 | 266 | 0.0 | 0.0 | 0.00 | 0.26 | 0.26 | 92 | 1007.1 |
| 20260904231227 | 61 | 199 | 0.0 | 0.0 | 0.00 | 0.26 | 0.26 | 92 | 1007.1 |
| 20260904230726 | 61 | 199 | 0.0 | 0.0 | 0.00 | 0.26 | 0.26 | 92 | 1007.1 |
| 20260904230220 | 61 | 199 | 0.0 | 0.0 | 0.00 | 0.26 | 0.26 | 92 | 1007.1 |
| 20260904224517 | 62 | 226 | 0.0 | 0.0 | 0.00 | 0.26 | 0.26 | 92 | 1007.1 |
| 20260904224017 | 62 | 226 | 0.0 | 0.0 | 0.00 | 0.26 | 0.26 | 92 | 1007.1 |
| 20260904223515 | 62 | 226 | 0.0 | 0.0 | 0.00 | 0.26 | 0.26 | 92 | 1007.1 |
| 20260904221827 | 63 | 253 | 0.0 | 0.0 | 0.00 | 0.26 | 0.26 | 91 | 1007.1 |
| 20260904221322 | 63 | 253 | 0.0 | 0.0 | 0.00 | 0.26 | 0.26 | 91 | 1007.1 |
| 20260904220817 | 63 | 253 | 0.0 | 0.0 | 0.00 | 0.26 | 0.26 | 91 | 1007.1 |
| 20260904215123 | 63 | 172 | 0.0 | 0.0 | 0.00 | 0.26 | 0.26 | 91 | 1006.7 |
| 20260904214623 | 63 | 172 | 0.0 | 0.0 | 0.00 | 0.26 | 0.26 | 91 | 1006.7 |
| 20260904214119 | 63 | 172 | 0.0 | 0.0 | 0.00 | 0.26 | 0.26 | 91 | 1006.7 |
| 20260904212428 | 63 | 178 | 0.0 | 0.0 | 0.00 | 0.26 | 0.26 | 90 | 1006.7 |
| 20260904211923 | 63 | 178 | 0.0 | 0.0 | 0.00 | 0.26 | 0.26 | 90 | 1006.7 |
| 20260904211418 | 63 | 178 | 0.0 | 0.0 | 0.00 | 0.26 | 0.26 | 90 | 1006.7 |
| 20260904205729 | 64 | 200 | 0.0 | 0.0 | 0.00 | 0.26 | 0.26 | 89 | 1006.7 |
| 20260904205219 | 64 | 200 | 0.0 | 0.0 | 0.00 | 0.26 | 0.26 | 89 | 1006.7 |
| 20260904204715 | 64 | 200 | 0.0 | 0.0 | 0.00 | 0.26 | 0.26 | 89 | 1006.7 |
| 20260904203029 | 65 | 188 | 0.0 | 0.0 | 0.07 | 0.26 | 0.26 | 87 | 1006.7 |
| 20260904202525 | 65 | 188 | 0.0 | 0.0 | 0.07 | 0.26 | 0.26 | 87 | 1006.7 |
| 20260904202020 | 65 | 188 | 0.0 | 0.0 | 0.07 | 0.26 | 0.26 | 87 | 1006.7 |
| 20260904200318 | 67 | 350 | 0.0 | 0.0 | 0.00 | 0.25 | 0.25 | 88 | 1006.4 |
| 20260904195819 | 67 | 350 | 0.0 | 0.0 | 0.00 | 0.25 | 0.25 | 88 | 1006.4 |
| 20260904195317 | 67 | 350 | 0.0 | 0.0 | 0.00 | 0.25 | 0.25 | 88 | 1006.4 |
| 20260904193627 | 67 | 208 | 0.0 | 0.0 | 0.00 | 0.25 | 0.25 | 88 | 1006.4 |
| 20260904193123 | 67 | 208 | 0.0 | 0.0 | 0.00 | 0.25 | 0.25 | 88 | 1006.4 |
| 20260904192617 | 67 | 208 | 0.0 | 0.0 | 0.00 | 0.25 | 0.25 | 88 | 1006.4 |
| 20260904190921 | 66 | 175 | 0.0 | 0.0 | 0.00 | 0.24 | 0.24 | 88 | 1006.7 |
| 20260904190421 | 66 | 175 | 0.0 | 0.0 | 0.00 | 0.24 | 0.24 | 88 | 1006.7 |
| 20260904185917 | 66 | 175 | 0.0 | 0.0 | 0.00 | 0.24 | 0.24 | 88 | 1006.7 |
| 20260904184223 | 68 | 289 | 0.0 | 0.0 | 0.07 | 0.19 | 0.19 | 84 | 1006.4 |
| 20260904183719 | 68 | 289 | 0.0 | 0.0 | 0.07 | 0.19 | 0.19 | 84 | 1006.4 |
| 20260904183218 | 68 | 289 | 0.0 | 0.0 | 0.07 | 0.19 | 0.19 | 84 | 1006.4 |
| 20260904181524 | 68 | 208 | 0.0 | 0.0 | 0.00 | 0.18 | 0.18 | 88 | 1006.4 |
| 20260904181019 | 68 | 208 | 0.0 | 0.0 | 0.00 | 0.18 | 0.18 | 88 | 1006.4 |
| 20260904180518 | 68 | 208 | 0.0 | 0.0 | 0.00 | 0.18 | 0.18 | 88 | 1006.4 |
| 20260904174826 | 68 | 347 | 0.0 | 0.0 | 0.00 | 0.18 | 0.18 | 86 | 1006.4 |
| 20260904174323 | 68 | 347 | 0.0 | 0.0 | 0.00 | 0.18 | 0.18 | 86 | 1006.4 |
| 20260904173818 | 68 | 347 | 0.0 | 0.0 | 0.00 | 0.18 | 0.18 | 86 | 1006.4 |
| 20260904172129 | 66 | 173 | 0.0 | 0.0 | 0.00 | 0.18 | 0.18 | 90 | 1006.4 |
| 20260904171625 | 66 | 173 | 0.0 | 0.0 | 0.00 | 0.18 | 0.18 | 90 | 1006.4 |
| 20260904171120 | 66 | 173 | 0.0 | 0.0 | 0.00 | 0.18 | 0.18 | 90 | 1006.4 |
| 20260904165419 | 65 | 215 | 0.0 | 0.0 | 0.85 | 0.18 | 0.18 | 89 | 1007.1 |
| 20260904164918 | 65 | 215 | 0.0 | 0.0 | 0.85 | 0.18 | 0.18 | 89 | 1007.1 |
| 20260904164418 | 65 | 215 | 0.0 | 0.0 | 0.85 | 0.18 | 0.18 | 89 | 1007.1 |
| 20260904162730 | 65 | 7 | 0.0 | 0.0 | 0.00 | 0.01 | 0.01 | 92 | 1007.1 |
| 20260904162225 | 65 | 7 | 0.0 | 0.0 | 0.00 | 0.01 | 0.01 | 92 | 1007.1 |
| 20260904161720 | 65 | 7 | 0.0 | 0.0 | 0.00 | 0.01 | 0.01 | 92 | 1007.1 |
| 20260904160027 | 64 | 191 | 0.0 | 0.0 | 0.00 | 0.01 | 0.01 | 92 | 1007.1 |
| 20260904155520 | 64 | 191 | 0.0 | 0.0 | 0.00 | 0.01 | 0.01 | 92 | 1007.1 |
| 20260904155020 | 64 | 191 | 0.0 | 0.0 | 0.00 | 0.01 | 0.01 | 92 | 1007.1 |